Theta_e
312 312 312 312 311 311 311 312 312 312 312 312 313 312 312 312 313 312 312 312 313 313 313 313 313 314 306 297 297 303 320 315 308 323 308 305 301 299 295 298 305 305 307 310 311 311 313
312 312 311 311 311 311 311 311 311 312 312 312 312 312 312 312 312 313 313 313 313 312 312 312 312 312 301 290 302 305 305 305 304 304 308 303 301 302 299 298 298 302 304 307 308 307 308
311 311 311 311 311 311 311 311 311 310 311 311 312 312 311 311 312 313 313 313 312 312 312 313 313 309 300 295 305 303 301 300 302 303 301 305 305 303 301 298 302 302 298 302 303 303 304
311 311 311 311 311 311 311 311 311 310 310 311 311 312 311 311 312 312 313 312 312 312 314 314 314 307 295 306 306 304 304 303 305 304 303 304 303 301 299 301 300 297 298 294 301 304 305
310 310 311 310 311 310 310 311 310 310 310 311 312 311 311 311 311 311 312 312 313 314 314 314 306 302 294 310 304 307 305 301 303 304 303 306 300 297 297 294 291 293 292 295 298 305 304
311 311 311 310 311 311 309 309 310 310 310 310 311 310 311 311 311 311 311 311 312 312 311 311 308 300 301 300 306 308 306 305 301 300 299 297 293 291 290 290 286 289 291 295 296 302 304
310 310 310 310 310 309 308 309 309 310 310 310 309 310 310 311 311 311 308 300 296 294 297 294 295 299 301 306 309 305 306 302 302 297 288 292 286 286 290 293 295 295 295 294 299 303 301
310 310 310 310 310 309 309 309 309 309 309 309 309 309 310 310 311 311 303 298 298 298 290 299 297 298 300 301 295 298 303 294 293 288 291 288 285 291 294 294 293 292 290 291 295 298 299
309 309 309 309 309 309 308 309 309 309 309 309 309 309 309 310 309 304 300 299 303 299 289 293 300 299 297 299 294 295 299 295 290 286 287 287 290 295 292 291 291 291 289 291 291 296 297
309 308 308 308 309 309 308 308 308 308 308 309 309 309 309 309 301 300 298 302 302 300 283 289 294 297 300 298 293 300 300 296 290 286 287 286 290 291 291 289 292 287 295 294 292 290 286
307 308 308 309 309 309 308 308 308 308 308 309 309 309 309 308 298 297 301 301 301 295 273 292 294 303 300 295 297 299 305 296 289 288 288 285 287 287 288 290 294 289 296 294 294 290 289
307 307 307 309 308 308 309 308 308 308 308 308 309 309 308 302 299 302 302 301 297 281 274 288 293 292 293 295 296 300 300 299 298 290 290 289 293 290 288 292 292 293 292 292 292 288 283
306 307 307 308 308 308 308 308 308 309 308 308 308 307 306 305 296 302 301 295 279 275 289 285 287 291 291 290 292 294 292 291 290 286 283 288 288 292 293 288 290 288 283 279 278 280 281
306 306 307 308 308 308 308 308 308 308 308 308 307 306 303 304 302 302 296 286 275 285 286 292 289 290 287 289 289 290 290 288 292 290 286 284 282 292 296 290 285 284 283 279 275 277 282
306 307 307 306 308 308 307 307 307 307 307 306 305 297 300 303 305 300 290 277 280 286 290 288 289 285 285 289 289 289 288 287 291 290 283 283 284 293 293 292 290 286 282 286 282 286 281
306 306 307 307 308 307 307 307 307 307 307 306 297 296 298 304 303 297 286 284 286 291 292 291 284 287 282 285 285 285 286 291 290 294 291 287 281 290 292 293 291 290 292 281 281 277 277
306 306 306 307 308 308 307 307 307 307 306 305 295 294 302 304 301 290 279 284 289 294 294 289 287 286 286 285 286 285 286 291 294 293 292 287 284 285 290 287 284 287 286 285 284 282 280
305 306 306 306 307 307 307 307 307 307 305 299 293 289 301 302 288 286 283 289 293 291 295 293 291 289 287 287 285 286 286 289 295 295 288 290 285 281 284 290 294 291 289 287 280 280 284
306 306 306 307 307 307 307 307 307 307 305 298 290 291 302 299 286 283 288 291 292 291 292 291 289 291 290 287 283 288 289 294 296 293 290 289 282 277 279 286 291 289 292 291 288 284 282
307 307 307 308 308 307 307 306 307 306 305 300 293 288 291 292 291 286 286 288 288 294 292 292 290 291 288 286 287 285 287 293 295 294 298 293 286 283 276 283 288 286 290 291 288 283 284
307 308 308 308 308 308 307 307 306 306 305 297 291 288 290 282 286 287 288 288 287 288 292 291 289 289 287 284 285 285 289 290 293 295 294 293 284 286 286 288 289 288 289 289 287 289 284
307 307 307 307 307 307 307 307 307 306 305 296 288 289 292 290 290 289 288 287 289 289 290 287 287 289 289 285 288 285 288 287 286 290 289 290 285 287 285 288 289 287 291 290 289 290 290
308 308 308 308 308 307 307 308 307 306 302 290 293 294 294 291 287 287 288 289 290 292 293 293 291 289 287 290 293 294 293 292 290 287 286 287 287 284 280 288 288 284 288 289 290 292 292
308 308 308 308 308 308 308 308 308 307 304 298 294 296 291 286 288 288 290 292 290 291 290 292 291 288 293 297 295 296 293 292 292 291 291 286 284 284 281 285 276 288 299 299 297 297 296
308 308 307 307 307 307 308 308 308 308 306 300 297 296 293 286 289 290 291 291 292 293 291 290 292 293 295 292 289 286 287 288 291 292 291 290 286 283 281 283 287 291 295 294 293 295 304
308 308 308 307 307 307 307 307 308 308 307 303 300 295 295 290 287 292 290 291 289 289 290 291 293 295 293 288 284 280 278 285 286 289 296 291 290 286 283 281 279 288 296 298 298 290 305
308 307 308 307 307 307 307 307 307 307 308 304 301 297 296 290 293 292 290 290 295 292 289 292 291 289 291 283 278 278 283 288 282 284 287 287 287 283 283 283 287 293 293 298 290 294 303
307 307 307 307 306 306 306 306 307 307 307 305 301 299 293 291 292 295 296 292 294 293 288 292 289 287 288 281 282 282 284 286 285 288 287 284 285 285 285 284 281 295 295 290 296 302 305
307 306 306 304 304 305 306 306 306 306 307 307 299 300 301 295 294 299 300 302 300 299 295 294 290 290 293 285 283 286 284 287 286 283 292 286 289 285 284 286 294 297 296 300 302 303 304
Wind_Speed
14 16 17 16 16 16 16 16 17 17 17 17 17 18 19 19 20 20 20 19 18 19 19 18 17 14 6 3 12 17 22 17 15 7 17 9 11 5 7 5 8 19 9 11 13 15 18
17 16 17 17 17 17 17 17 17 17 18 18 19 20 21 21 22 22 22 21 19 18 18 17 14 11 4 11 11 12 13 9 6 5 12 9 6 8 5 6 10 3 7 17 13 15 16
16 16 17 17 17 17 18 18 18 18 18 19 19 20 22 23 24 24 24 24 24 22 21 17 13 8 10 20 6 6 10 7 5 7 5 10 7 5 6 4 9 10 13 15 18 8 8
17 17 18 18 18 18 18 18 18 18 19 19 19 20 22 24 25 25 26 26 28 26 21 16 10 6 10 13 11 16 16 10 9 10 8 9 4 6 7 5 6 3 5 17 15 16 8
17 18 18 18 18 19 19 19 19 19 20 20 20 21 22 23 24 24 25 28 31 23 10 3 2 4 12 9 7 13 15 11 5 5 6 8 4 6 1 4 2 6 17 20 20 7 4
17 18 18 19 19 18 20 20 20 20 20 21 21 21 22 22 23 24 23 26 24 12 5 8 4 4 7 4 4 9 7 11 8 3 1 2 3 5 4 7 17 12 20 19 18 7 14
17 18 19 20 21 21 22 22 22 21 22 23 24 23 25 26 25 19 12 7 8 7 7 9 16 14 24 31 25 15 10 4 5 3 7 4 5 19 22 16 14 7 17 8 5 11 15
17 18 18 19 20 20 21 21 22 22 23 24 26 27 26 27 25 23 3 1 3 6 12 10 18 22 27 24 27 31 17 2 1 3 5 5 20 11 7 6 11 13 15 14 9 9 9
17 18 18 19 20 20 21 22 22 22 23 23 23 25 26 27 29 3 3 6 7 5 3 11 16 15 10 9 24 28 12 6 5 5 6 10 6 11 15 12 15 16 18 13 10 10 22
17 18 18 19 18 19 21 22 23 24 24 23 23 24 24 27 5 5 6 8 7 4 3 7 8 10 10 8 4 22 19 11 6 10 7 9 10 14 10 21 13 19 9 13 14 12 16
18 18 19 18 18 19 20 21 23 24 23 23 23 24 24 20 5 4 7 8 6 5 4 10 6 5 5 9 14 8 9 10 17 12 8 8 5 1 12 15 13 19 11 13 14 10 16
19 20 20 19 21 21 20 21 22 24 23 24 24 24 23 6 2 8 8 8 6 6 4 6 6 18 15 19 2 6 8 3 8 17 17 13 9 9 9 10 9 5 9 12 16 2 11
20 21 21 21 21 21 21 22 24 25 25 26 27 28 16 3 5 4 6 5 6 5 12 14 23 13 10 18 10 11 5 4 2 2 1 8 13 14 14 12 10 4 2 2 3 7 17
19 20 20 21 22 22 22 22 23 26 26 27 27 25 3 6 7 3 4 6 7 8 12 21 14 12 8 13 11 13 8 6 3 5 2 3 3 5 2 1 5 7 10 6 7 4 8
19 20 21 22 21 22 22 23 24 25 27 29 23 4 3 5 8 3 5 6 2 10 13 12 15 4 5 8 3 9 6 3 3 2 4 2 4 3 10 6 4 5 10 7 5 14 1
19 19 20 20 20 22 22 23 24 25 27 29 4 4 4 4 4 5 6 3 4 13 11 10 5 3 4 5 6 9 4 3 8 4 1 2 2 6 5 5 6 8 3 5 3 7 9
19 19 20 19 20 20 22 23 23 25 28 24 3 4 4 1 5 6 3 4 10 15 11 3 8 7 3 3 4 2 5 6 9 7 7 3 4 3 5 3 7 1 5 5 4 4 9
18 19 19 19 19 20 21 23 24 24 26 7 4 4 4 4 5 1 2 10 12 11 8 3 6 2 2 5 4 5 5 6 8 5 6 2 3 4 9 16 13 6 9 5 5 12 6
18 19 19 19 19 19 20 22 23 22 19 7 4 4 4 5 4 4 6 9 9 11 10 1 4 1 1 3 5 4 3 0 11 3 4 5 1 4 9 3 3 5 5 0 4 6 19
18 18 19 19 19 19 19 20 22 22 19 3 3 4 6 5 1 3 9 6 9 8 9 12 9 3 6 8 4 6 13 4 6 8 13 3 4 6 6 5 6 8 6 5 0 3 12
18 18 19 19 19 19 19 19 21 23 24 3 1 2 2 4 5 6 6 7 8 9 3 5 5 11 12 7 11 7 7 12 5 5 3 5 5 9 13 17 17 18 18 13 9 8 3
18 19 19 19 20 20 19 17 18 19 23 4 3 4 5 7 5 6 6 3 12 15 8 7 9 16 13 7 12 16 10 6 8 6 6 6 5 6 15 18 19 21 18 14 15 11 11
17 17 18 17 17 19 17 16 15 16 11 3 3 3 2 5 4 3 2 13 12 15 9 13 13 15 8 13 13 18 16 16 11 9 7 6 4 2 7 12 6 6 14 16 6 8 3
17 17 17 17 16 16 16 15 13 10 7 1 2 3 3 5 5 8 15 13 15 15 12 14 9 3 8 15 22 14 16 16 15 15 14 6 6 5 7 7 5 2 10 8 2 10 14
18 18 17 17 17 17 16 15 13 10 8 2 2 2 3 7 8 15 7 13 13 14 11 10 11 8 14 9 5 6 5 4 3 9 13 15 6 4 4 3 4 4 6 6 7 6 4
18 18 16 16 17 17 17 16 14 12 7 2 3 3 3 6 4 4 12 9 7 10 7 5 6 8 6 4 3 4 3 5 4 10 6 13 11 5 3 5 3 2 13 11 13 7 4
17 17 18 18 17 17 17 16 16 14 11 3 4 3 2 5 10 4 5 4 6 3 5 7 9 8 6 5 3 2 3 7 5 7 5 1 2 11 10 6 3 12 22 23 7 7 19
16 16 17 17 18 17 17 16 16 14 13 4 4 4 3 5 12 15 12 7 6 4 3 6 6 5 4 7 3 3 3 4 4 3 6 2 2 3 3 6 3 18 15 10 8 12 13
15 15 16 20 20 17 17 16 16 15 14 9 5 3 2 5 8 10 15 21 23 25 5 2 1 1 2 3 2 4 3 3 4 3 6 3 5 3 3 2 8 5 8 9 11 11 14
Wind_Direction
23 26 23 20 16 11 7 4 2 360 356 352 349 345 339 336 331 325 321 317 314 312 311 309 311 318 341 288 256 273 308 320 326 169 199 201 192 177 212 218 231 247 245 224 238 258 253
26 21 17 14 12 9 5 3 0 358 352 348 345 341 338 334 329 324 318 314 308 302 296 296 294 300 273 268 237 275 291 328 330 327 197 193 203 198 266 244 221 264 254 258 246 245 254
20 16 13 10 7 5 2 0 358 355 349 343 338 336 334 330 326 323 318 313 306 301 299 291 282 271 252 253 227 284 308 296 281 281 295 218 213 203 183 294 267 262 277 281 257 236 249
13 10 7 5 2 360 358 356 353 350 345 338 334 329 326 327 325 322 316 312 304 299 295 285 269 267 261 257 256 263 265 273 251 235 238 258 254 216 211 293 310 280 248 247 245 243 245
10 7 3 0 358 355 352 349 347 344 340 335 330 324 320 318 318 318 314 310 304 307 309 264 169 178 264 291 226 247 225 239 253 237 213 244 187 183 178 163 330 225 245 242 249 231 228
6 2 358 357 354 352 348 346 345 342 337 334 331 326 319 319 328 324 319 308 294 316 104 155 216 286 260 256 243 302 186 197 226 245 10 244 187 193 164 167 212 221 224 235 245 222 234
3 360 357 356 353 351 348 346 343 340 339 335 333 334 332 331 327 317 334 348 15 349 339 254 275 253 281 286 300 294 339 20 239 220 171 211 178 215 209 217 235 259 244 270 207 208 232
359 355 354 354 352 349 346 345 343 340 339 338 338 338 334 326 324 320 116 3 297 235 290 307 280 274 256 262 271 280 293 293 5 209 177 206 231 227 246 228 227 252 267 268 293 284 255
357 354 353 353 350 348 348 346 344 342 339 337 337 335 334 329 323 355 253 287 320 29 309 322 326 304 302 236 240 254 262 266 244 259 234 215 235 213 240 239 243 232 236 253 260 306 289
356 354 352 351 348 349 348 347 344 342 339 336 335 332 332 336 349 332 290 293 307 106 29 277 4 309 325 322 273 230 240 216 215 212 247 251 230 253 246 231 235 248 247 244 251 258 260
357 355 353 349 348 348 346 345 342 341 337 332 331 329 328 327 270 304 265 305 335 64 37 322 269 248 314 286 297 323 274 186 225 221 177 226 294 189 238 244 235 254 253 235 236 234 249
358 355 353 351 351 348 345 342 339 337 334 330 327 325 329 327 261 243 300 331 51 46 319 324 300 354 357 342 288 62 338 143 229 227 224 227 233 246 242 261 262 319 242 240 259 222 250
0 356 352 351 350 348 345 342 338 336 333 329 325 319 318 248 246 299 345 30 38 78 318 355 347 355 358 355 20 68 265 170 315 311 250 233 241 242 245 258 269 218 62 252 258 210 236
359 356 353 352 349 347 344 340 337 335 333 327 324 313 257 204 243 312 31 42 56 5 344 333 328 316 349 7 352 339 347 62 89 224 173 186 288 180 34 136 248 187 177 190 191 205 240
356 354 354 352 348 347 345 340 336 335 331 325 324 319 287 258 231 95 61 41 235 1 353 307 315 349 313 2 333 353 341 316 12 103 134 138 229 332 317 311 147 304 219 199 292 273 274
352 351 349 347 345 346 345 342 339 336 332 324 318 328 277 214 141 64 68 297 307 330 351 332 320 343 317 358 9 344 312 4 343 341 63 169 278 253 291 326 239 196 241 187 197 204 239
346 348 346 345 345 345 344 343 343 341 338 328 38 15 270 173 59 48 115 247 305 318 325 317 296 303 309 325 220 235 293 331 5 354 345 343 140 294 350 247 231 241 217 192 158 207 220
344 344 345 346 345 346 345 344 344 348 344 20 353 25 278 70 35 18 305 304 300 306 350 313 279 293 358 331 332 54 321 296 343 324 327 308 121 274 252 259 252 268 282 174 210 234 248
342 343 342 344 345 346 347 345 344 347 359 334 339 274 326 83 24 313 293 299 287 319 321 345 287 293 287 329 327 318 338 307 325 321 334 351 342 305 319 328 196 248 144 349 285 204 236
339 341 341 343 345 346 347 345 343 342 346 342 322 348 330 37 94 320 316 292 319 313 309 351 302 11 355 319 215 282 301 266 284 224 236 57 246 217 227 274 326 275 271 303 304 265 244
337 340 341 342 345 347 348 348 344 342 340 91 22 292 230 305 324 316 318 286 314 327 307 323 297 342 321 298 305 273 300 303 283 254 131 175 243 236 256 266 273 266 262 245 236 249 246
334 337 339 341 342 344 346 345 347 346 339 45 24 357 343 285 277 319 313 336 309 329 312 308 319 310 307 274 277 286 268 261 247 264 183 170 255 267 274 269 257 244 244 234 237 235 250
326 332 333 335 337 340 342 341 345 351 7 21 319 300 258 259 287 330 303 320 314 323 305 308 309 306 300 278 287 275 261 254 239 207 197 187 212 260 269 337 330 221 235 222 197 181 206
320 326 328 331 332 332 332 334 335 345 16 283 306 282 274 282 302 303 302 314 317 314 296 304 310 291 278 301 292 270 261 253 236 230 213 214 178 214 277 263 234 198 40 63 303 226 213
318 321 324 324 324 327 327 327 328 328 325 219 253 271 273 285 296 293 276 319 309 300 293 294 301 275 295 289 304 318 338 326 355 232 217 209 191 269 257 309 282 266 41 1 355 290 330
310 312 313 319 321 321 322 323 324 326 302 278 258 196 260 297 260 303 310 284 303 317 313 272 300 309 340 346 353 335 330 320 335 332 9 195 206 205 291 285 284 333 331 305 299 247 351
304 308 311 313 317 318 317 318 318 319 313 280 263 206 257 267 273 249 277 312 284 280 283 290 333 338 9 357 351 334 314 350 343 332 340 202 136 226 243 254 207 355 316 281 194 1 322
303 305 307 309 312 313 315 313 312 313 310 299 257 224 175 257 277 262 268 259 273 229 279 314 331 1 348 13 345 330 312 313 308 316 319 314 260 275 243 232 303 0 346 47 323 321 318
304 305 305 315 315 308 310 309 309 309 307 301 268 198 177 246 265 304 266 250 244 248 267 226 237 264 305 353 342 304 304 298 288 316 329 12 338 335 4 292 275 311 342 309 318 344 323